Regional Weather Roundup
Issued by NWS Upton, NY

Home | Current Version | Previous Version | Text Only | Print | Product List | Glossary On
Versions: 1 2 3 4 5 6 7 8 9 10 11 12 13 14 15 16 17 18 19 20 21 22 23 24 25 26 27 28 29 30 31 32 33 34 35 36 37 38 39 40 41 42 43 44 45 46 47 48 49 50
000
ASUS41 KOKX 011405
RWROKX

REGIONAL WEATHER ROUNDUP
NATIONAL WEATHER SERVICE NEW YORK NY
1000 AM EDT FRI AUG 01 2014

NOTE: "FAIR" INDICATES FEW OR NO CLOUDS BELOW 12,000 FEET WITH NO
SIGNIFICANT WEATHER AND/OR OBSTRUCTIONS TO VISIBILITY.

NYZ071-072-176-178-NJZ106-104-011500-
NEW YORK CITY METRO AREA


CITY           SKY/WX    TMP DP  RH WIND       PRES   REMARKS
CENTRAL PARK   MOSUNNY   77  66  68 NW3       30.21F
LAGUARDIA APRT PTSUNNY   80  67  64 VRB3      30.18S
KENNEDY INTL   PTSUNNY   77  67  71 SW8       30.20S
NEWARK/LIBERTY PTSUNNY   79  69  71 CALM      30.19S
BRNX BOT. GARD   N/A     79  66  65 CALM      30.22R
TETERBORO      MOSUNNY   79  67  66 W3        30.18S
$$

NYZ177-179-078>081-011500-
LONG ISLAND NEW YORK

CITY           SKY/WX    TMP DP  RH WIND       PRES   REMARKS
FARMINGDALE    MOSUNNY   78  68  71 S6        30.20S
ISLIP          PTSUNNY   79  68  69 S3        30.19S
SHIRLEY        MOSUNNY   79  69  71 SW5       30.21S
WESTHAMPTON    MOSUNNY   78  68  71 CALM      30.22S
MONTAUK POINT    N/A     76  69  79 VRB3      30.24R
$$

NYZ052-065-067-011500-
HUDSON VALLEY

CITY           SKY/WX    TMP DP  RH WIND       PRES   REMARKS
WHITE PLAINS   MOSUNNY   76  67  73 CALM      30.19F
NEWBURGH       SUNNY     73  68  83 CALM      30.21F
MONTGOMERY     MOSUNNY   72  64  76 SW6       30.20S
POUGHKEEPSIE   SUNNY     76  66  71 S5        30.18F
ALBANY         PTSUNNY   72  64  76 S9        30.19F
$$

NJZ001-105-106-008-010-013-015-019>022-104-011500-
NEW JERSEY

CITY           SKY/WX    TMP DP  RH WIND       PRES   REMARKS
NEWARK/LIBERTY PTSUNNY   79  69  71 CALM      30.19S
TETERBORO      MOSUNNY   79  67  66 W3        30.18S
CALDWELL       PTSUNNY   72  65  78 CALM      30.20S HAZE
MORRISTOWN     PTSUNNY   77  70  78 CALM      30.19S HAZE
SOMERVILLE     CLOUDY    76  67  73 N3        30.17S
LINDEN         FAIR      79  69  72 CALM      30.21R
SUSSEX         CLOUDY    73  66  78 VRB6      30.20S
ANDOVER          N/A     72  66  81 CALM      30.21S
TRENTON        PTSUNNY   76  68  76 VRB5      30.19S
MILLVILLE      CLOUDY    77  68  73 SW3       30.19S
ATLANTIC CITY  CLOUDY    78  67  68 SW6       30.19S
WRIGHTSTOWN    LGT RAIN  77  68  73 W7        30.17S
TOMS RIVER     PTSUNNY   79  66  65 SW7       30.20R
BELMAR         PTSUNNY   75  66  73 CALM      30.19S
$$

PAZ047>061-062-071-011500-
EASTERN PENNSYLVANIA

CITY           SKY/WX    TMP DP  RH WIND       PRES   REMARKS
PHILADELPHIA   PTSUNNY   78  68  71 SW7       30.18S
ALLENTOWN      PTSUNNY   74  67  78 W3        30.19S
SCRANTON       PTSUNNY   75  61  61 VRB3      30.20S
$$

CTZ002-004>006-009-010-012-RIZ004-006-007-MAZ004-011-015-011500-
SOUTHERN NEW ENGLAND
 IN CT

CITY           SKY/WX    TMP DP  RH WIND       PRES   REMARKS
BRADLEY INTL   MOSUNNY   78  65  63 CALM      30.20S
HARTFORD       MOSUNNY   78  67  68 NE3       30.19F
DANBURY        SUNNY     75  66  73 W5        30.21F
WTRBRY/OXFORD  MOSUNNY   73  66  78 W5        30.23F
BRIDGEPORT     MOSUNNY   76  68  76 S6        30.19S
MERIDEN        SUNNY     79  67  66 SE5       30.20S
NEW HAVEN      PTSUNNY   78  69  73 SE6       30.20S
CHESTER        FAIR      77  68  73 CALM      30.22S
GROTON         MOSUNNY   74  70  87 S7        30.21S
WILLIMANTIC    MOSUNNY   76  67  73 VRB3      30.22S

 IN RI

CITY           SKY/WX    TMP DP  RH WIND       PRES   REMARKS
PROVIDENCE     PTSUNNY   75  67  76 VRB3      30.23R
BLOCK ISLAND   PTSUNNY   75  66  73 SW5       30.24R
WESTERLY       PTSUNNY   76  68  76 VRB3      30.23R

 IN MA

CITY           SKY/WX    TMP DP  RH WIND       PRES   REMARKS
BOSTON         MOSUNNY   74  66  76 SE5       30.21S
WORCESTER      SUNNY     74  64  71 W7        30.24S
WESTFIELD      SUNNY     75  66  73 S5        30.20F
PROVINCETOWN   MOSUNNY   75  66  73 SW7       30.24R
NANTUCKET      PTSUNNY   70  65  84 S9        30.25R
$$

ANZ330-335-338-340-345-350-353-355-011500-
COASTAL MARINE OBSERVATIONS


STATION/POSITION TIME  SKY/WX   TEMP    WIND        PRES    VSBY  WAVE
                                AIR SEA DIR/SP/G                  HT/PER
                 (UTC)          (F)     (DEG/KT/KT) (MB)    (MI)  (FT/S)
NY HARB ENTRANCE NOT AVBL
4S FIRE IS       NOT AVBL
23SW MTP         1400            72 71              1022.9          3/ 8
HUDSON CANYON    1400            74 74  140/  6/  6 1022.9          3/ 7
EXECUTION ROCKS  1400            74 70  120/  4/  6   N/A
WESTERN LI SOUND 1400            72     140/  4/  6   N/A           1
CENTRAL LI SOUND 1300            73 72   CALM  /  2   N/A           1
EASTERN LI SOUND 1300            73 69  190/  2/  4   N/A
ROBBINS REEF     1400            76     290/  1/  2   N/A
$$


>>>>>>>>>>>>>>>>>>>>>>>>>>>> KEY <<<<<<<<<<<<<<<<<<<<<<<<<<<
>                                                          <
>     SKY/WX - SKY CONDITION/PRESENT WEATHER               <
>     TMP    - TEMPERATURE IN FAHRENHEIT                   <
>     DP     - DEWPOINT IN FAHRENHEIT                      <
>     RH     - RELATIVE HUMIDITY IN PERCENT                <
>     WIND   - DIRECTION AND SPEED IN MPH                  <
>     PRES   - MEAN SEA LEVEL PRESSURE IN INCHES OF HG     <
>     WCI    - WIND CHILL INDEX                            <
>     VSB    - VISIBILITY IN MILES                         <
>     HX     - HEAT INDEX                                  <
>     TC     - TEMPERATURE IN CELSIUS                      <
>     VRB    - VARIABLE WIND DIRECTION                     <
>                                                          <
>>>>>>>>>>>>>>>>>>>>>>>>>>>> KEY <<<<<<<<<<<<<<<<<<<<<<<<<<<




USA.gov is the U.S. government's official web portal to all federal, state and local government web resources and services.